STELLA

Last updated on July 6, 2021, 3:43 p.m. UTC

1 22824U 93061B   21187.24977078 -.00000033  00000-0  54879-5 0  9995
2 22824  98.9760 194.0796 0007453  79.1019 296.4091 14.27384676447151
UTC
Height (km)
Latitude
Longitude
Inclination
Orbital Period
UTC large
Height (km)
Speed (km/s)
/
Latitude / Longitude
Inclination (degrees)
Orbital Period (minutes)
Azimuth
Elevation
Range (km)
Doppler Factor
iOS Compass Heading
iOS Angle